TimeCST,TemperatureF,Dew PointF,Humidity,Sea Level PressureIn,VisibilityMPH,Wind Direction,Wind SpeedMPH,Gust SpeedMPH,PrecipitationIn,Events,Conditions,WindDirDegrees,DateUTC
12:53 AM,69.1,62.1,78,30.09,10.0,ESE,8.1,-,N/A,,Partly Cloudy,120,2012-11-23 06:53:00
1:53 AM,68.0,62.1,81,30.09,10.0,SE,6.9,-,N/A,,Overcast,130,2012-11-23 07:53:00
2:53 AM,66.9,62.1,84,30.09,10.0,ESE,5.8,-,N/A,,Scattered Clouds,120,2012-11-23 08:53:00
3:53 AM,68.0,62.1,81,30.09,10.0,East,4.6,-,N/A,,Scattered Clouds,100,2012-11-23 09:53:00
4:53 AM,69.1,62.1,78,30.10,10.0,East,5.8,-,N/A,,Overcast,80,2012-11-23 10:53:00
5:53 AM,70.0,62.1,76,30.12,10.0,East,3.5,-,N/A,,Overcast,100,2012-11-23 11:53:00
6:53 AM,70.0,62.1,76,30.14,10.0,East,4.6,-,N/A,,Overcast,90,2012-11-23 12:53:00
7:53 AM,71.1,62.1,73,30.16,10.0,East,4.6,-,N/A,,Overcast,90,2012-11-23 13:53:00
8:53 AM,72.0,62.1,71,30.18,10.0,ESE,3.5,-,N/A,,Overcast,110,2012-11-23 14:53:00
9:53 AM,75.0,63.0,66,30.20,10.0,SSE,4.6,-,N/A,,Overcast,160,2012-11-23 15:53:00
10:53 AM,80.1,62.1,54,30.21,10.0,SSE,11.5,-,N/A,,Overcast,150,2012-11-23 16:53:00
11:53 AM,80.1,61.0,52,30.19,10.0,SSE,10.4,-,N/A,,Overcast,150,2012-11-23 17:53:00
12:53 PM,81.0,61.0,50,30.17,10.0,SSE,8.1,-,N/A,,Overcast,150,2012-11-23 18:53:00
1:53 PM,81.0,61.0,50,30.15,10.0,ENE,9.2,-,N/A,,Overcast,60,2012-11-23 19:53:00
2:53 PM,78.1,61.0,56,30.14,10.0,ENE,10.4,-,N/A,,Overcast,60,2012-11-23 20:53:00
3:53 PM,75.0,61.0,62,30.14,10.0,NE,15.0,20.7,N/A,,Overcast,40,2012-11-23 21:53:00
4:53 PM,73.0,62.1,68,30.15,10.0,NE,9.2,-,N/A,,Overcast,40,2012-11-23 22:53:00
5:53 PM,70.0,63.0,78,30.17,10.0,ENE,10.4,-,0.06,Rain,Light Rain,70,2012-11-23 23:53:00
6:53 PM,69.1,64.9,87,30.21,6.0,ENE,3.5,-,0.09,Rain,Rain,60,2012-11-24 00:53:00
7:53 PM,69.1,64.9,87,30.25,8.0,North,5.8,-,0.16,Rain,Rain,10,2012-11-24 01:53:00
8:53 PM,68.0,64.9,90,30.31,5.0,NNW,11.5,-,0.08,Rain,Heavy Rain,340,2012-11-24 02:53:00
9:05 PM,66.2,64.4,94,30.32,5.0,North,16.1,25.3,0.07,Rain,Heavy Rain,350,2012-11-24 03:05:00
9:29 PM,62.6,60.8,94,30.33,6.0,NNE,24.2,32.2,0.18,Rain,Heavy Rain,20,2012-11-24 03:29:00
9:53 PM,63.0,60.1,90,30.32,7.0,North,12.7,-,0.29,Rain,Heavy Rain,10,2012-11-24 03:53:00
10:53 PM,63.0,60.1,90,30.31,10.0,North,5.8,-,0.07,Rain,Light Rain,350,2012-11-24 04:53:00
11:53 PM,63.0,60.1,90,30.26,10.0,South,3.5,-,0.02,Rain,Light Rain,190,2012-11-24 05:53:00